Location: Zihuatanejo
(17.6330°N, 101.5500°W)
Time: 11:23:22
(UTC-05:00)

Daily predictions for brighter satellites

Satellite Brightness Start Highest point End
(mag) Time Altitude Azimuth Time Altitude Azimuth Time Altitude Azimuth
Cosmos 1437 Rocket 3.1 20:11:09 10° SSE 20:14:52 43° E 20:18:40 10° NNE
SJ-6B 4.0 20:13:41 10° SE 20:16:33 21° ENE 20:19:24 10° NNE
ATLAS CENTAUR R/B 1.8 20:13:25 10° NNW 20:16:57 56° WSW 20:20:31 10° SSE
Ariane H10+ 4.4 20:12:40 10° SW 20:18:21 32° SSE 20:34:54 10° E
Ariane H10 4.1 20:17:45 10° S 20:18:57 12° SSE 20:20:25 10° SE
Lacrosse 4 Rocket 3.0 20:15:15 10° SW 20:19:05 39° WNW 20:22:53 10° N
Helios 1B rocket 4.2 20:20:58 10° ENE 20:22:42 12° E 20:24:25 10° ESE
SWIFT 2.7 20:26:49 10° WNW 20:31:02 57° N 20:34:55 12° E
Cosmos 1758 Rocket 4.2 20:26:53 10° NNW 20:31:11 61° W 20:35:25 10° S
BREEZE-M DEB (TANK) 4.2 20:31:21 10° S 20:33:02 13° SE 20:33:59 12° ESE
Cosmos 1844 Rocket 4.2 20:28:25 10° SW 20:33:41 41° WNW 20:38:59 10° N
GPS 2-05 Rocket1 4.1 20:34:12 10° W 20:37:33 39° NNW 20:40:56 10° NE
OAO 1 Rocket 4.4 20:36:41 10° WNW 20:42:01 89° NNE 20:46:40 14° ESE
Cosmos 2278 Rocket 2.1 20:37:23 10° SSW 20:43:03 82° ESE 20:48:43 10° NNE
Cosmos 1953 3.8 20:43:19 10° SE 20:46:48 18° ENE 20:48:56 10° NE
Cosmos 2112 Rocket 3.9 20:42:03 10° NNW 20:47:18 84° ENE 20:52:29 10° SSE
Cosmos 1934 Rocket 3.9 20:43:22 10° S 20:49:34 77° E 20:55:41 10° N
Palapa 6 Rocket 4.0 20:43:18 10° WNW 20:50:30 77° SSW 20:54:55 19° ESE
USA 215 3.7 20:45:09 10° NNE 20:51:35 65° NW 20:58:01 10° SW
H-2A R/B 3.6 20:49:38 18° ESE 20:51:41 28° ENE 20:55:01 10° NNE
FENGYUN 3A 3.7 20:48:17 10° SSE 20:53:33 56° ENE 20:58:49 10° N
Cosmos 1378 3.5 20:50:23 10° NNE 20:53:54 39° E 20:57:20 10° SSE
Cosmos 2297 4.1 20:50:10 10° S 20:55:24 40° ESE 21:00:41 10° NE
Cosmos 1125 Rocket 3.9 20:51:39 10° S 20:56:27 39° E 21:01:14 10° NNE
OAO 2 Rocket 4.0 20:55:49 10° SSW 21:00:33 36° SE 21:02:32 27° E
HJ-1C 3.2 21:02:16 10° SSE 21:05:37 78° E 21:08:59 10° N
ATLAS 5 CENTAUR R/B 2.1 21:03:25 10° S 21:07:35 36° ESE 21:08:19 34° E
Cosmos 1707 3.3 21:05:19 10° NNW 21:09:07 57° W 21:12:54 10° S
ALOS 2.2 21:04:55 10° S 21:09:35 86° W 21:14:15 10° NNW
Cosmos 1544 3.0 21:07:31 10° S 21:11:04 57° E 21:14:38 10° NNE
Cosmos 1766 4.1 21:07:22 10° SSW 21:11:09 51° W 21:14:54 10° N
Meteor 1-24 Rocket 3.7 21:05:54 10° N 21:11:23 59° E 21:17:05 10° SSE
ISS -3.4 21:09:03 10° SSW 21:11:40 45° SSE 21:11:40 45° SSE
Resurs 01 Rocket 1.6 21:09:10 18° SSE 21:12:20 58° ENE 21:16:39 10° N
Aurora 2 Rocket 3.2 21:10:46 10° W 21:17:38 69° NNW 21:19:49 34° NE
Meteor 2-5 Rocket 4.3 21:12:15 10° NNW 21:17:57 62° W 21:23:45 10° S
NOSS 3-4 (A) 4.2 21:14:12 10° NNW 21:21:31 68° WSW 21:29:09 10° SSE
NOSS 3-4 (C) 4.2 21:14:17 10° NNW 21:21:37 68° WSW 21:29:16 10° SSE
Mugunghwa Rocket 4.2 21:17:51 10° SW 21:23:54 49° SSE 21:25:32 40° ESE
Cosmos 1605 Rocket 4.2 21:21:14 10° S 21:27:23 72° W 21:33:38 10° N
Delta 7925 Rocket 4.2 21:23:47 10° SW 21:28:09 32° SSE 21:28:09 32° SSE
SeaSat 1 2.6 21:27:41 19° SSE 21:31:11 71° WSW 21:36:05 10° NNW
COSMOS 2406 3.4 21:27:26 10° NNW 21:33:07 72° WSW 21:37:29 17° S
Cosmos 2098 Rocket 4.0 21:28:06 10° S 21:34:18 81° E 21:41:39 10° N
Delta 168 4.2 21:34:04 10° WNW 21:36:28 25° NNW 21:36:28 25° NNW
CZ-2D R/B 4.3 21:42:19 40° NNW 21:42:19 40° NNW 21:44:53 10° NNW
Cosmos 2123 Rocket 4.4 21:47:44 10° NNW 21:53:56 63° W 22:00:05 10° S
Helios 1B rocket 4.5 21:54:24 10° NNW 21:57:52 27° WNW 22:01:19 10° SW
